Date String (YYYY-MM-DD hh:mm:ss) UTC,Instrument flags,Ambient pressure (hPa),Sample flow (lpm),Bypass flow (lpm),Sample temperature (°C),Ambient temperature (°C),ASC tube jacket temperature (°C),LED temperature (°C),Box temperature (°C),Sample RH (%),Span deviation,Mass concentration (μg/m³),Mass concentration (μg/m³),Mass concentration (μg/m³)
DateTimeUTC,F1_M11,P_M11,Q1_M11,Q2_M11,T1_M11,T2_M11,T3_M11,T4_M11,T5_M11,U1_M11,ZSPAN_M11,X0_M11,X2_M11,X1_M11
2022-01-28 21:00:00,,0833.4,5.00,0.00,25.4,24.7,00.0,34.5,27.1,07.1,0000.0,0009.08,0002.66,0001.83
2022-01-28 21:01:00,,0833.5,5.00,0.00,25.4,24.7,00.0,34.5,27.1,07.0,0000.0,0009.51,0002.67,0001.80
2022-01-28 21:02:00,,0833.4,5.00,0.00,25.4,24.7,00.0,34.5,27.1,06.9,0000.0,0009.34,0002.62,0001.78
2022-01-28 21:03:00,,0833.5,5.00,0.00,25.4,24.7,00.0,34.5,27.1,07.1,0000.0,0009.33,0002.60,0001.77
2022-01-28 21:04:00,,0833.4,5.00,0.00,25.4,24.7,00.0,34.4,27.1,07.1,0000.0,0009.09,0002.55,0001.74
2022-01-28 21:05:00,,0833.4,5.00,0.00,25.4,24.7,00.0,34.4,27.1,06.9,0000.0,0009.12,0002.50,0001.72
2022-01-28 21:06:00,,0833.4,5.00,0.00,25.4,24.7,00.0,34.4,27.1,06.9,0000.0,0008.55,0002.40,0001.69
2022-01-28 21:07:00,,0833.4,5.02,0.00,25.4,24.7,00.0,34.4,27.1,07.0,0000.0,0008.10,0002.32,0001.65
2022-01-28 21:08:00,,0833.4,5.00,0.00,25.4,24.7,00.0,34.4,27.1,06.5,0000.0,0008.11,0002.25,0001.60
2022-01-28 21:09:00,,0833.5,5.00,0.00,25.4,24.7,00.0,34.4,27.1,06.5,0000.0,0008.43,0002.16,0001.56
2022-01-28 21:10:00,,0833.4,5.00,0.00,25.4,24.7,00.0,34.4,27.1,06.4,0000.0,0008.43,0002.07,0001.52
2022-01-28 21:11:00,,0833.4,4.99,0.00,25.4,24.7,00.0,34.4,27.1,06.2,0000.0,0008.50,0002.04,0001.47
2022-01-28 21:12:00,,0833.5,5.00,0.00,25.4,24.7,00.0,34.4,27.1,06.2,0000.0,0007.81,0001.93,0001.44
2022-01-28 21:13:00,,0833.4,5.00,0.00,25.4,24.7,00.0,34.4,27.1,06.0,0000.0,0007.06,0001.87,0001.41
2022-01-28 21:14:00,,0833.4,5.01,0.00,25.4,24.7,00.0,34.4,27.1,06.4,0000.0,0006.61,0001.81,0001.36
2022-01-28 21:15:00,,0833.4,4.99,0.00,25.3,24.7,00.0,34.4,27.1,06.1,0000.0,0006.03,0001.76,0001.31
2022-01-28 21:16:00,,0833.4,5.00,0.00,25.3,24.7,00.0,34.4,27.1,06.2,0000.0,0005.51,0001.71,0001.28
2022-01-28 21:17:00,,0833.4,4.99,0.00,25.3,24.7,00.0,34.3,27.1,06.5,0000.0,0004.48,0001.70,0001.26
2022-01-28 21:18:00,,0833.4,5.01,0.00,25.3,24.7,00.0,34.3,27.1,06.2,0000.0,0004.07,0001.69,0001.24
2022-01-28 21:19:00,,0833.3,4.99,0.00,25.3,24.7,00.0,34.3,27.1,06.3,0000.0,0003.76,0001.66,0001.22
2022-01-28 21:20:00,,0833.3,4.99,0.00,25.3,24.7,00.0,34.3,27.1,06.1,0000.0,0002.88,0001.63,0001.20
2022-01-28 21:21:00,,0833.3,5.01,0.00,25.3,24.7,00.0,34.3,27.0,06.2,0000.0,0002.84,0001.63,0001.19
2022-01-28 21:22:00,,0833.3,4.99,0.00,25.3,24.7,00.0,34.3,27.1,06.3,0000.0,0002.43,0001.55,0001.18
2022-01-28 21:23:00,,0833.3,5.00,0.00,25.3,24.7,00.0,34.3,27.0,06.4,0000.0,0002.44,0001.56,0001.17
2022-01-28 21:24:00,,0833.3,5.01,0.00,25.3,24.7,00.0,34.3,27.0,06.7,0000.0,0002.58,0001.60,0001.18
2022-01-28 21:25:00,,0833.3,5.00,0.00,25.3,24.7,00.0,34.3,27.1,06.8,0000.0,0002.61,0001.60,0001.18
2022-01-28 21:26:00,,0833.3,5.00,0.00,25.3,24.7,00.0,34.3,27.1,06.6,0000.0,0002.59,0001.59,0001.20
2022-01-28 21:27:00,,0833.2,5.00,0.00,25.3,24.7,00.0,34.3,27.1,06.6,0000.0,0002.72,0001.67,0001.22
2022-01-28 21:28:00,,0833.2,4.99,0.00,25.3,24.7,00.0,34.3,27.0,07.0,0000.0,0002.72,0001.68,0001.23
2022-01-28 21:29:00,,0833.2,5.00,0.00,25.3,24.7,00.0,34.3,27.1,06.8,0000.0,0002.92,0001.65,0001.24
2022-01-28 21:30:00,,0833.2,5.00,0.00,25.3,24.7,00.0,34.3,27.1,07.0,0000.0,0003.42,0001.66,0001.23
2022-01-28 21:31:00,,0833.1,5.01,0.00,25.3,24.7,00.0,34.3,27.1,06.5,0000.0,0003.41,0001.66,0001.23
2022-01-28 21:32:00,,0833.1,5.00,0.00,25.3,24.7,00.0,34.3,27.1,07.1,0000.0,0004.36,0001.68,0001.24
2022-01-28 21:33:00,,0833.1,5.00,0.00,25.3,24.7,00.0,34.3,27.1,06.7,0000.0,0004.87,0001.71,0001.26
2022-01-28 21:34:00,,0833.1,4.99,0.00,25.3,24.7,00.0,34.3,27.1,06.7,0000.0,0004.83,0001.69,0001.27
2022-01-28 21:35:00,,0833.1,5.01,0.00,25.3,24.7,00.0,34.3,27.1,06.9,0000.0,0004.79,0001.69,0001.28
2022-01-28 21:36:00,,0833.1,4.99,0.00,25.3,24.7,00.0,34.3,27.1,07.0,0000.0,0005.22,0001.74,0001.28
2022-01-28 21:37:00,,0833.1,4.99,0.00,25.3,24.7,00.0,34.3,27.1,06.7,0000.0,0006.27,0001.77,0001.30
2022-01-28 21:38:00,,0833.1,5.00,0.00,25.4,24.8,00.0,34.3,27.2,06.6,0000.0,0006.32,0001.72,0001.30
2022-01-28 21:39:00,,0833.1,5.00,0.00,25.4,24.8,00.0,34.3,27.2,06.9,0000.0,0006.38,0001.69,0001.30
2022-01-28 21:40:00,,0833.1,5.00,0.00,25.4,24.8,00.0,34.3,27.2,06.7,0000.0,0006.27,0001.70,0001.31
2022-01-28 21:41:00,,0833.1,5.01,0.00,25.4,24.8,00.0,34.3,27.2,06.8,0000.0,0006.71,0001.72,0001.33
2022-01-28 21:42:00,,0833.2,5.00,0.00,25.4,24.8,00.0,34.3,27.2,06.6,0000.0,0006.99,0001.74,0001.33
2022-01-28 21:43:00,,0833.2,5.00,0.00,25.4,24.8,00.0,34.3,27.2,06.7,0000.0,0006.30,0001.73,0001.31
2022-01-28 21:44:00,,0833.2,4.99,0.00,25.4,24.8,00.0,34.3,27.2,06.7,0000.0,0005.57,0001.73,0001.31
2022-01-28 21:45:00,,0833.1,5.00,0.00,25.4,24.8,00.0,34.3,27.2,06.7,0000.0,0005.64,0001.70,0001.30
2022-01-28 21:46:00,,0833.1,5.01,0.00,25.4,24.8,00.0,34.3,27.2,06.7,0000.0,0005.87,0001.71,0001.30
2022-01-28 21:47:00,,0833.2,5.00,0.00,25.4,24.8,00.0,34.3,27.2,07.1,0000.0,0005.47,0001.67,0001.30
2022-01-28 21:48:00,,0833.2,5.00,0.00,25.4,24.8,00.0,34.3,27.2,06.9,0000.0,0004.47,0001.66,0001.31
2022-01-28 21:49:00,,0833.2,4.99,0.00,25.4,24.8,00.0,34.3,27.2,07.0,0000.0,0004.37,0001.68,0001.31
2022-01-28 21:50:00,,0833.2,4.99,0.00,25.4,24.8,00.0,34.3,27.2,07.0,0000.0,0004.33,0001.71,0001.30
2022-01-28 21:51:00,,0833.1,4.99,0.00,25.4,24.9,00.0,34.3,27.3,06.9,0000.0,0004.41,0001.74,0001.30
2022-01-28 21:52:00,,0833.1,5.00,0.00,25.4,24.9,00.0,34.3,27.3,06.8,0000.0,0003.65,0001.76,0001.29
2022-01-28 21:53:00,,0833.1,5.00,0.00,25.5,24.9,00.0,34.3,27.3,06.4,0000.0,0003.48,0001.79,0001.31
2022-01-28 21:54:00,,0833.1,5.00,0.00,25.5,24.9,00.0,34.4,27.3,06.4,0000.0,0003.44,0001.78,0001.33
2022-01-28 21:55:00,,0833.1,5.00,0.00,25.5,24.9,00.0,34.4,27.3,06.3,0000.0,0003.61,0001.82,0001.35
2022-01-28 21:56:00,,0833.1,5.00,0.00,25.5,24.9,00.0,34.4,27.3,06.4,0000.0,0003.66,0001.86,0001.35
2022-01-28 21:57:00,,0833.1,5.00,0.00,25.5,24.9,00.0,34.4,27.3,06.4,0000.0,0003.43,0001.86,0001.35
2022-01-28 21:58:00,,0833.1,5.01,0.00,25.5,24.9,00.0,34.4,27.3,06.3,0000.0,0003.41,0001.86,0001.35
2022-01-28 21:59:00,,0833.0,5.00,0.00,25.5,24.9,00.0,34.4,27.3,06.4,0000.0,0003.40,0001.85,0001.34
